Stations météo

Publicité
Rodez, France (7552): Température de l'air & dewpoint: 16.02.2017 07:00:00 - 22.02.2017 07:00:00 (CET)Rodez, France (7552): Température de l'air 5cm: 16.02.2017 07:00:00 - 22.02.2017 07:00:00 (CET)Rodez, France (7552): Vitesse du vent & gusts: 16.02.2017 07:00:00 - 22.02.2017 07:00:00 (CET)Rodez, France (7552): Direction du vent: 16.02.2017 07:00:00 - 22.02.2017 07:00:00 (CET)Rodez, France (7552): reduced air pressure: 16.02.2017 07:00:00 - 22.02.2017 07:00:00 (CET)Rodez, France (7552): visibility: 16.02.2017 07:00:00 - 22.02.2017 07:00:00 (CET)Rodez, France (7552): Ensoleillement: 16.02.2017 07:00:00 - 22.02.2017 07:00:00 (CET)Rodez, France (7552): Quantités de précipitations: 16.02.2017 07:00:00 - 22.02.2017 07:00:00 (CET)
Date & Time tt [°C] td [°C] tt 5cm [°C] ff [km/h] ff [knt] fx [km/h] fx [knt] dd ppp [hPa] vv [km] sd [min] rr [mm]
22.02.2017 07:00:00 7,4 7,4 6,4 9 5 13 7 WNW 1024,1 9 0 0,0
22.02.2017 06:00:00 7,5 7,5 7,3 8 4 13 7 WNW 1024,1 12 0 0,0
22.02.2017 05:00:00 7,6 7,6 7,3 10 5 15 8 WNW 1024,1 9 0 0,0
22.02.2017 04:00:00 7,6 7,5 7,4 6 4 10 6 W 1024,3 12 0 0,0
22.02.2017 03:00:00 7,6 7,5 7,5 6 4 10 5 W 1024,8 13 0 0,0
22.02.2017 02:00:00 7,8 7,8 7,6 6 3 11 6 NW 1024,9 10 0 0,0
22.02.2017 01:00:00 7,9 7,8 7,7 8 5 14 8 NW 1025,3 12 0 0,0
22.02.2017 00:00:00 7,8 7,7 7,1 9 5 11 6 WNW 1025,2 19 0 0,0
21.02.2017 23:00:00 7,5 7,2 7,1 6 3 9 5 WNW 1025,2 20 0 0,0
21.02.2017 22:00:00 7,6 7,2 6,6 3 2 8 5 WNW 1025,4 34 0 0,0
21.02.2017 21:00:00 8,0 7,2 7,6 6 3 8 4 WNW 1025,4 49 0 0,0
21.02.2017 20:00:00 8,2 7,1 7,9 4 2 15 8 NW 1025,5 60 0 0,0
21.02.2017 19:00:00 8,4 7,5 8,1 10 5 16 9 WNW 1025,5 19 0 0,0
21.02.2017 18:00:00 8,7 7,6 8,6 10 5 16 9 W 1025,1 20 0 0,0
21.02.2017 17:00:00 8,8 7,4 9,0 13 7 21 12 WNW 1025,1 57 0 0,0
21.02.2017 16:00:00 8,8 7,2 9,2 14 8 22 12 NW 1025,2 20 0 0,0
21.02.2017 15:00:00 9,1 7,4 9,9 16 8 25 14 NW 1025,4 60 0 0,0
21.02.2017 14:00:00 8,7 7,3 9,0 19 10 25 14 NW 1026,2 53 0 0,0
21.02.2017 13:00:00 7,6 7,5 7,8 13 7 21 12 NW 1027,1 19 0 0,0
21.02.2017 12:00:00 6,6 6,6 - 13 7 18 10 NW 1028,0 7 - 0,0
21.02.2017 11:00:00 6,4 6,4 6,8 12 7 16 9 NW 1028,1 4,3 0 0,0
21.02.2017 10:00:00 5,9 5,9 6,1 7 4 9 5 NW 1028,2 0,4 0 0,0
21.02.2017 09:00:00 5,4 5,4 5,5 5 3 11 6 WNW 1028,2 0,3 0 0,0
21.02.2017 08:00:00 5,4 5,4 5,4 7 4 11 6 NW 1028,0 1,4 0 0,2
21.02.2017 07:00:00 5,4 5,4 5,1 5 3 10 5 W 1027,7 1,0 0 0,2
21.02.2017 06:00:00 5,1 5,1 5,0 5 3 12 6 W 1027,9 0,2 0 0,2
21.02.2017 05:00:00 5,1 5,1 5,0 9 5 14 7 W 1027,6 0,7 0 0,0
21.02.2017 04:00:00 5,0 5,0 5,0 8 5 14 8 WNW 1027,9 0,3 0 0,0
21.02.2017 03:00:00 5,1 5,1 4,7 11 6 15 8 NW 1028,3 0,4 0 0,0
21.02.2017 02:00:00 4,7 4,7 4,6 6 3 9 5 WNW 1028,9 1,0 0 0,0
21.02.2017 01:00:00 4,7 4,7 4,6 6 4 12 7 NW 1028,7 2,8 0 0,0
21.02.2017 00:00:00 5,0 3,8 4,9 4 2 8 4 NNW 1028,9 14 0 0,0
20.02.2017 23:00:00 5,0 3,7 4,6 4 2 12 6 N 1029,1 14 0 0,0
20.02.2017 22:00:00 5,0 3,7 4,9 6 3 12 7 W 1029,0 13 0 0,0
20.02.2017 21:00:00 5,0 3,7 5,0 10 6 18 10 W 1029,0 11 0 0,0
20.02.2017 20:00:00 5,2 3,7 5,3 11 6 23 12 WNW 1028,6 12 0 0,0
20.02.2017 19:00:00 5,5 3,5 5,5 16 9 24 13 WNW 1028,0 13 0 0,0
20.02.2017 18:00:00 6,0 3,5 5,9 16 9 25 14 NW 1027,7 16 25 0,0
20.02.2017 17:00:00 8,0 2,9 10,1 16 9 30 16 NW 1027,1 27 60 0,0
20.02.2017 16:00:00 8,9 2,7 11,3 21 11 30 16 NW 1027,2 25 58 0,0
20.02.2017 15:00:00 9,1 3,1 13,1 16 9 31 17 WNW 1027,1 24 60 0,0
20.02.2017 14:00:00 8,8 3,0 13,5 20 11 29 16 W 1027,6 20 60 0,0
20.02.2017 13:00:00 7,1 3,7 12,8 13 7 26 14 NNW 1028,5 18 60 0,0
20.02.2017 12:00:00 5,7 2,9 12,0 13 7 19 10 W 1029,3 18 60 0,0
20.02.2017 11:00:00 4,2 4,2 4,9 3 2 7 4 NNW 1029,5 5 17 0,0
20.02.2017 10:00:00 1,8 1,8 1,4 3 1 5 3 E 1029,9 0,2 0 0,0
20.02.2017 09:00:00 -0,3 -0,3 -1,6 4 2 5 3 SSE 1030,3 0,1 0 0,0
20.02.2017 08:00:00 -1,7 -1,7 -7,7 0 0 4 2 N 1030,1 0,1 0 0,0
20.02.2017 07:00:00 -2,7 -2,7 -7,6 2 1 3 2 WSW 1030,2 3,6 0 0,0
20.02.2017 06:00:00 -1,7 -1,7 -7,2 0 0 2 1 N 1029,8 0,1 0 0,0
20.02.2017 05:00:00 -0,8 -0,8 -6,7 0 0 5 3 N 1029,2 0,2 0 0,0
20.02.2017 04:00:00 -0,6 -0,6 -6,1 5 3 7 4 SW 1029,4 0,2 0 0,0
20.02.2017 03:00:00 -0,2 -0,2 -6,0 4 2 7 4 WSW 1029,5 0,2 0 0,0
20.02.2017 02:00:00 2,0 2,0 -4,0 6 3 9 5 W 1029,0 0,5 0 0,0
20.02.2017 01:00:00 2,4 2,4 -3,4 8 4 12 6 W 1028,9 8 0 0,0
20.02.2017 00:00:00 3,5 3,5 -1,7 6 3 14 8 WNW 1029,0 9 0 0,0
19.02.2017 23:00:00 2,9 2,3 -2,4 10 5 12 6 W 1028,6 8 0 0,0
19.02.2017 22:00:00 4,5 3,2 1,6 6 3 19 11 W 1028,3 11 0 0,0
19.02.2017 21:00:00 5,7 4,3 4,0 13 7 23 13 W 1027,8 13 0 0,0
19.02.2017 20:00:00 7,5 5,1 5,9 15 8 23 13 W 1027,2 18 0 0,0
19.02.2017 19:00:00 7,9 4,7 6,2 13 7 21 11 W 1026,5 32 2 0,0
19.02.2017 18:00:00 9,5 4,3 8,8 12 7 22 12 W 1025,6 48 28 0,0
19.02.2017 17:00:00 11,0 3,8 11,8 16 9 23 13 WNW 1025,3 60 49 0,0
19.02.2017 16:00:00 12,1 3,6 11,5 17 9 31 17 NW 1025,5 59 36 0,0
19.02.2017 15:00:00 12,7 4,1 13,2 18 10 26 14 W 1025,5 60 55 0,0
19.02.2017 14:00:00 11,6 4,6 12,7 14 7 21 11 WNW 1025,9 41 50 0,0
19.02.2017 13:00:00 11,1 4,1 17,3 11 6 25 14 NW 1026,8 30 60 0,0
19.02.2017 12:00:00 10,7 4,2 16,9 8 4 17 9 W 1027,0 20 60 0,0
19.02.2017 11:00:00 9,6 4,4 13,8 4 2 8 4 NE 1027,5 18 60 0,0
19.02.2017 10:00:00 6,4 3,2 6,6 4 2 8 4 ESE 1028,1 14 60 0,0
19.02.2017 09:00:00 2,1 1,5 -0,8 0 0 8 5 N 1028,8 7 22 0,0
19.02.2017 08:00:00 1,2 1,2 -6,9 8 4 10 5 ESE 1028,3 6 0 0,0
19.02.2017 07:00:00 -0,7 -0,7 -6,4 6 4 9 5 SSE 1028,5 7 0 0,0
19.02.2017 06:00:00 -0,3 -0,3 -6,1 3 2 6 3 S 1028,3 0,6 0 0,0
19.02.2017 05:00:00 -0,3 -0,3 -5,6 4 2 9 5 S 1027,8 8 0 0,0
19.02.2017 04:00:00 1,6 1,6 -4,5 4 2 6 3 ESE 1026,7 0,7 0 0,0
19.02.2017 03:00:00 2,5 0,4 -0,8 5 3 14 8 E 1026,4 12 0 0,0
19.02.2017 02:00:00 5,4 3,4 -0,8 14 8 16 8 E 1025,4 14 0 0,0
19.02.2017 01:00:00 5,4 3,1 -3,2 8 5 9 5 E 1025,2 14 0 0,0
19.02.2017 00:00:00 3,5 1,7 -1,7 4 2 9 5 S 1025,4 18 0 0,0
18.02.2017 23:00:00 5,0 1,5 1,6 9 5 11 6 ESE 1024,8 19 0 0,0
18.02.2017 22:00:00 5,6 2,8 -0,5 10 5 16 8 SSE 1024,3 32 0 0,0
18.02.2017 21:00:00 5,7 1,6 1,3 11 6 19 10 SSE 1023,8 53 0 0,0
18.02.2017 20:00:00 7,8 1,6 -0,2 13 7 20 11 SSE 1022,9 60 0 0,0
18.02.2017 19:00:00 8,0 -1,5 1,3 0 0 6 3 N 1022,3 60 0 0,0
18.02.2017 18:00:00 11,4 -0,8 8,8 4 2 9 5 E 1020,8 60 56 0,0
18.02.2017 17:00:00 14,3 -2,2 17,3 0 0 12 6 N 1019,6 60 60 0,0
18.02.2017 16:00:00 14,4 -4,9 20,7 4 2 11 6 NW 1019,6 49 60 0,0
18.02.2017 15:00:00 14,4 -4,9 22,1 2 1 13 7 ENE 1019,7 53 60 0,0
18.02.2017 14:00:00 13,4 -3,4 21,2 6 3 11 6 S 1020,4 57 60 0,0
18.02.2017 13:00:00 13,0 -1,7 20,9 5 3 10 5 NE 1021,2 52 60 0,0
18.02.2017 12:00:00 11,1 0,2 18,9 5 3 12 7 E 1022,4 53 60 0,0
18.02.2017 11:00:00 9,1 2,2 12,5 4 2 8 4 E 1023,0 33 60 0,0
18.02.2017 10:00:00 5,3 1,9 5,7 5 3 10 5 ESE 1024,1 18 60 0,0
18.02.2017 09:00:00 2,1 2,1 -3,9 0 0 4 2 N 1024,8 7 22 0,0
18.02.2017 08:00:00 0,4 0,4 -4,8 0 0 7 4 N 1024,9 8 0 0,0
18.02.2017 07:00:00 -0,6 -0,6 -4,5 4 2 9 5 S 1025,0 7 0 0,0
18.02.2017 06:00:00 -0,3 -0,3 -3,9 5 3 6 3 SSE 1025,3 6 0 0,0
18.02.2017 05:00:00 1,8 1,8 -4,3 5 3 8 4 ESE 1024,9 2,1 0 0,0
18.02.2017 04:00:00 0,4 0,4 -3,5 0 0 6 3 N 1025,9 7 0 0,0
18.02.2017 03:00:00 0,6 0,3 -2,5 3 1 5 3 SE 1026,5 15 0 0,0
18.02.2017 02:00:00 1,7 1,7 -2,9 0 0 3 2 N 1026,6 17 0 0,0
18.02.2017 01:00:00 2,5 1,3 -2,1 2 1 8 5 E 1026,8 16 0 0,0
18.02.2017 00:00:00 5,0 2,7 -1,8 6 3 11 6 NNE 1026,0 31 0 0,0
17.02.2017 23:00:00 5,8 2,4 0,3 3 1 9 5 NNW 1026,2 42 0 0,0
17.02.2017 22:00:00 5,2 3,7 -0,8 7 4 9 5 WNW 1026,5 57 0 0,0
17.02.2017 21:00:00 5,5 3,2 0,3 6 3 8 4 WNW 1026,4 60 0 0,0
17.02.2017 20:00:00 7,2 2,5 2,2 7 4 13 7 NW 1026,1 60 0 0,0
17.02.2017 19:00:00 7,5 2,4 3,7 9 5 18 10 WNW 1026,0 60 0 0,0
17.02.2017 18:00:00 10,7 4,2 9,7 9 5 21 12 WNW 1025,1 60 60 0,0
17.02.2017 17:00:00 13,2 4,3 14,7 14 8 23 13 WNW 1024,6 53 60 0,0
17.02.2017 16:00:00 14,1 3,5 17,4 17 9 24 13 WNW 1024,8 51 60 0,0
17.02.2017 15:00:00 13,8 3,0 19,6 11 6 21 11 NNW 1025,4 60 60 0,0
17.02.2017 14:00:00 13,1 5,0 18,7 10 6 20 11 NNW 1026,5 60 60 0,0
17.02.2017 13:00:00 12,4 5,5 18,5 9 5 17 9 NW 1027,2 60 60 0,0
17.02.2017 12:00:00 11,5 6,2 19,2 4 2 8 5 N 1028,1 49 60 0,0
17.02.2017 11:00:00 10,3 5,7 14,3 0 0 7 4 N 1028,7 49 60 0,0
17.02.2017 10:00:00 6,3 4,9 5,2 4 2 7 4 SSE 1029,8 14 60 0,0
17.02.2017 09:00:00 2,0 2,0 -4,6 2 1 5 3 SE 1031,0 4,8 16 0,0
17.02.2017 08:00:00 -0,4 -0,4 -5,3 0 0 4 2 N 1031,4 0,5 0 0,0
17.02.2017 07:00:00 -0,2 -0,2 -4,6 5 3 7 4 E 1031,3 0,5 0 0,0
17.02.2017 06:00:00 0,2 0,2 -4,9 2 1 5 3 SSE 1031,4 0,7 0 0,0
17.02.2017 05:00:00 0,0 0,0 -4,6 3 1 4 2 S 1031,9 0,3 0 0,0
17.02.2017 04:00:00 0,9 0,9 -4,1 2 1 5 3 SE 1031,9 1,1 0 0,0
17.02.2017 03:00:00 2,0 2,0 -4,1 3 1 5 3 SSE 1032,0 1,0 0 0,0
17.02.2017 02:00:00 1,2 1,2 -3,9 5 3 7 4 SSE 1032,4 10 0 0,0
17.02.2017 01:00:00 1,6 1,6 -3,4 3 2 5 3 SSE 1032,6 17 0 0,0
17.02.2017 00:00:00 3,3 3,3 -2,9 2 1 6 3 SSW 1032,4 15 0 0,0
16.02.2017 23:00:00 3,8 3,5 -1,9 4 2 5 3 S 1032,4 22 0 0,0
16.02.2017 22:00:00 4,3 3,6 -1,5 3 1 7 4 S 1032,4 19 0 0,0
16.02.2017 21:00:00 5,8 4,3 -0,3 5 3 7 4 S 1031,9 41 0 0,0
16.02.2017 20:00:00 7,8 4,7 3,3 6 4 11 6 NW 1031,2 59 0 0,0
16.02.2017 19:00:00 9,2 4,8 5,2 10 5 14 8 NNW 1030,6 60 0 0,0
16.02.2017 18:00:00 11,4 5,9 10,8 7 4 10 5 NW 1029,7 60 15 0,0
16.02.2017 17:00:00 13,0 5,9 13,6 7 4 13 7 WNW 1029,2 60 12 0,0
16.02.2017 16:00:00 14,5 4,5 19,7 8 4 17 9 NW 1029,1 35 58 0,0
16.02.2017 15:00:00 14,6 4,6 20,1 8 5 17 9 WNW 1029,4 52 57 0,0
16.02.2017 14:00:00 14,9 4,3 17,9 8 4 18 10 SSE 1029,9 60 57 0,0
16.02.2017 13:00:00 13,3 4,7 17,8 2 1 14 8 NE 1031,1 55 40 0,0
16.02.2017 12:00:00 12,8 6,4 19,2 7 4 14 8 SE 1031,8 44 60 0,0
16.02.2017 11:00:00 11,0 6,5 11,6 6 3 9 5 ESE 1032,6 37 37 0,0
16.02.2017 10:00:00 8,3 6,3 7,0 6 3 9 5 ESE 1033,5 42 29 0,0
16.02.2017 09:00:00 4,6 4,6 -1,3 2 1 4 2 E 1034,3 0,6 20 0,0
16.02.2017 08:00:00 1,9 1,5 -1,3 0 0 8 4 N 1034,8 0,4 0 0,0
16.02.2017 07:00:00 5,1 4,8 3,3 5 3 14 8 ENE 1033,6 9 0 0,0

tt = Température de l'air
td = dewpoint
tt 5cm = Température de l'air 5cm
ff = Vitesse du vent
fx = gusts
dd = Direction du vent
ppp = reduced air pressure
vv = visibility
sd = Ensoleillement
rr = Quantités de précipitations

stations d'obs. à proximité